This is the latest recevied weather packets stored in our database for station/object KE8KMM. If no packets are shown the sender has not sent any weather packets the latest 10 day(s).
| Time | Temp. | Humidity | Pressure | Rain* | Wind** | Luminosity | Snow |
|---|---|---|---|---|---|---|---|
| 1777402509 | 23.33° C | 71% | 1011.6 hPa | 0 mm | - | 672 W/m² | - |
| 1777402205 | 22.78° C | 72% | 1011.6 hPa | 0 mm | - | 667 W/m² | - |
| 1777401900 | 22.78° C | 73% | 1011.4 hPa | 0 mm | - | 682 W/m² | - |
| 1777401599 | 22.78° C | 74% | 1011.3 hPa | 0 mm | - | 717 W/m² | - |
| 1777401296 | 22.78° C | 72% | 1011.7 hPa | 0 mm | - | 686 W/m² | - |
| 1777400991 | 22.78° C | 73% | 1011.8 hPa | 0 mm | - | 704 W/m² | - |
| 1777400687 | 22.78° C | 74% | 1011.7 hPa | 0 mm | - | 168 W/m² | - |
| 1777400385 | 22.22° C | 71% | 1011.8 hPa | 0 mm | - | 718 W/m² | - |
| 1777400080 | 22.22° C | 71% | 1011.8 hPa | 0 mm | - | 351 W/m² | - |
| 1777399778 | 22.22° C | 70% | 1011.7 hPa | 0 mm | - | 577 W/m² | - |
| 1777399475 | 22.22° C | 71% | 1011.8 hPa | 0 mm | - | 225 W/m² | - |
| 1777399172 | 22.22° C | 72% | 1011.8 hPa | 0 mm | - | 813 W/m² | - |
| 1777398869 | 21.67° C | 76% | 1011.7 hPa | 0 mm | - | 797 W/m² | - |
| 1777398566 | 21.67° C | 73% | 1011.6 hPa | 0 mm | - | 238 W/m² | - |
| 1777398262 | 21.67° C | 72% | 1011.7 hPa | 0 mm | - | 359 W/m² | - |
| 1777397961 | 22.22° C | 73% | 1011.8 hPa | 0 mm | - | 240 W/m² | - |
| 1777397655 | 22.22° C | 74% | 1011.6 hPa | 0 mm | - | 828 W/m² | - |
| 1777397352 | 21.67° C | 75% | 1011.7 hPa | 0 mm | - | 445 W/m² | - |
| 1777397049 | 21.11° C | 75% | 1011.8 hPa | 0 mm | - | 897 W/m² | - |
| 1777396745 | 21.67° C | 76% | 1012 hPa | 0 mm | - | 342 W/m² | - |
| 1777396442 | 21.67° C | 75% | 1012 hPa | 0 mm | - | 891 W/m² | - |
| 1777396138 | 21.11° C | 77% | 1011.9 hPa | 0 mm | - | 369 W/m² | - |
| 1777395834 | 21.11° C | 79% | 1012 hPa | 0 mm | - | 1016 W/m² | - |
| 1777395530 | 21.11° C | 80% | 1012.1 hPa | 0 mm | - | 313 W/m² | - |
| 1777395227 | 20° C | 81% | 1012.1 hPa | 0 mm | - | 383 W/m² | - |
* Rain latest hour (hover to see other rain measurements)
** Current wind speed in m/s (hover to see current wind gust speed)